Friday, July 20, 2018, 12:34 PM EDT
Back to Local

KIDI, Indiana / Stewart Field

Location: Indiana, PA, United States Lat: 40.633
Local Time: 12:34 PM EDT (16:34 GMT) Lon: -79.1
Time Zone: US/Eastern Elev: 1407 ft

Show me the last for .
Show Decoded

2018-07-20 12:15 METAR KIDI 201615Z AUTO 16010KT 10SM FEW060 FEW070 26/17 A3009 RMK A01 =
2018-07-20 11:55 METAR KIDI 201555Z AUTO 16008KT 10SM CLR 27/18 A3009 RMK A01 =
2018-07-20 11:35 METAR KIDI 201535Z AUTO 16010KT 10SM CLR 26/18 A3010 RMK A01 =
2018-07-20 11:15 METAR KIDI 201515Z AUTO 15008G15KT 10SM FEW060 26/18 A3010 RMK A01 =
2018-07-20 10:55 METAR KIDI 201455Z AUTO 18011KT 9SM FEW060 25/17 A3010 RMK A01 =
2018-07-20 10:35 METAR KIDI 201435Z AUTO 15009KT 10SM CLR 25/17 A3010 RMK A01 =
2018-07-20 10:15 METAR KIDI 201415Z AUTO 17010G20KT 10SM CLR 25/17 A3011 RMK A01 =
2018-07-20 09:55 METAR KIDI 201355Z AUTO 16008G15KT 10SM CLR 25/17 A3011 RMK A01 =
2018-07-20 09:35 METAR KIDI 201335Z AUTO 16009G15KT 10SM CLR 24/17 A3011 RMK A01 =
2018-07-20 09:15 METAR KIDI 201315Z AUTO 17010KT 10SM CLR 23/17 A3011 RMK A01 =
2018-07-20 08:55 METAR KIDI 201255Z AUTO 14007KT 10SM CLR 23/17 A3011 RMK A01 =
2018-07-20 08:35 METAR KIDI 201235Z AUTO 22004KT 10SM CLR 22/16 A3013 RMK A01 =
2018-07-20 08:15 METAR KIDI 201215Z AUTO VRB06G11KT 10SM CLR 22/16 A3012 RMK A01 =
2018-07-20 07:55 METAR KIDI 201155Z AUTO 19006KT 10SM CLR 21/16 A3012 RMK A01 =
2018-07-20 07:35 METAR KIDI 201135Z AUTO 15009G14KT 10SM CLR 21/15 A3012 RMK A01 =
2018-07-20 07:15 METAR KIDI 201115Z AUTO 15009KT 10SM CLR 21/15 A3011 RMK A01 =
2018-07-20 06:55 METAR KIDI 201055Z AUTO 16007KT 10SM CLR 20/15 A3011 RMK A01 =
2018-07-20 06:35 METAR KIDI 201035Z AUTO 18007KT 10SM CLR 19/15 A3012 RMK A01 =
2018-07-20 06:15 METAR KIDI 201015Z AUTO 17005KT 10SM CLR 19/15 A3012 RMK A01 =
2018-07-20 05:55 METAR KIDI 200955Z AUTO 00000KT 10SM CLR 17/15 A3011 RMK A01 =
2018-07-20 05:35 METAR KIDI 200935Z AUTO 00000KT 10SM CLR 18/15 A3011 RMK A01 =
2018-07-20 05:15 METAR KIDI 200915Z AUTO VRB03KT 10SM CLR 19/15 A3011 RMK A01 =
2018-07-20 04:55 METAR KIDI 200855Z AUTO 00000KT 10SM CLR 19/15 A3012 RMK A01 =
2018-07-20 04:35 METAR KIDI 200835Z AUTO 19006KT 10SM CLR 19/15 A3011 RMK A01 =
2018-07-20 04:15 METAR KIDI 200815Z AUTO 00000KT 10SM CLR 19/15 A3011 RMK A01 =
2018-07-20 03:55 METAR KIDI 200755Z AUTO 00000KT 10SM CLR 19/15 A3012 RMK A01 =
2018-07-20 03:35 METAR KIDI 200735Z AUTO 19006G12KT 10SM CLR 20/15 A3011 RMK A01 =
2018-07-20 03:15 METAR KIDI 200715Z AUTO 23005KT 10SM CLR 19/15 A3011 RMK A01 =
2018-07-20 02:55 METAR KIDI 200655Z AUTO 00000KT 10SM CLR 20/15 A3011 RMK A01 =
2018-07-20 02:35 METAR KIDI 200635Z AUTO 16007KT 120V200 10SM CLR 21/15 A3010 RMK A01 =
2018-07-20 02:15 METAR KIDI 200615Z AUTO 15007KT 10SM CLR 21/15 A3010 RMK A01 =
2018-07-20 01:55 METAR KIDI 200555Z AUTO VRB05G11KT 10SM CLR 21/15 A3011 RMK A01 =
2018-07-20 01:35 METAR KIDI 200535Z AUTO 15007G13KT 10SM CLR 21/15 A3011 RMK A01 =
2018-07-20 01:15 METAR KIDI 200515Z AUTO 15008KT 10SM CLR 21/15 A3012 RMK A01 =
2018-07-20 00:55 METAR KIDI 200455Z AUTO VRB06KT 10SM CLR 21/15 A3012 RMK A01 =
2018-07-20 00:35 METAR KIDI 200435Z AUTO 15007G13KT 10SM CLR 22/15 A3012 RMK A01 =
2018-07-20 00:15 METAR KIDI 200415Z AUTO 15007G13KT 10SM CLR 21/15 A3013 RMK A01 =
2018-07-19 23:55 METAR KIDI 200355Z AUTO 15007KT 10SM CLR 21/15 A3012 RMK A01 =
2018-07-19 23:35 METAR KIDI 200335Z AUTO 15007KT 10SM CLR 22/15 A3012 RMK A01 =
2018-07-19 23:15 METAR KIDI 200315Z AUTO 14007KT 10SM FEW046 22/15 A3011 RMK A01 =
2018-07-19 22:55 METAR KIDI 200255Z AUTO 13005KT 10SM FEW045 21/15 A3012 RMK A01 =
2018-07-19 22:35 METAR KIDI 200235Z AUTO 13005G10KT 10SM CLR 21/15 A3012 RMK A01 =
2018-07-19 22:15 METAR KIDI 200215Z AUTO 11004KT 10SM CLR 22/15 A3012 RMK A01 =
2018-07-19 21:55 METAR KIDI 200155Z AUTO 13006KT 10SM CLR 22/15 A3011 RMK A01 =
2018-07-19 21:35 METAR KIDI 200135Z AUTO 12005KT 10SM CLR 22/16 A3011 RMK A01 =
2018-07-19 21:15 METAR KIDI 200115Z AUTO 13005KT 10SM CLR 23/16 A3011 RMK A01 =
2018-07-19 20:55 METAR KIDI 200055Z AUTO 14004KT 10SM CLR 23/16 A3010 RMK A01 =
2018-07-19 20:35 METAR KIDI 200035Z AUTO 14004KT 10SM CLR 24/16 A3010 RMK A01 =
2018-07-19 20:15 METAR KIDI 200015Z AUTO 14003KT 10SM CLR 25/16 A3010 RMK A01 =
2018-07-19 19:55 METAR KIDI 192355Z AUTO 17004KT 10SM CLR 26/15 A3010 RMK A01 =
2018-07-19 19:35 METAR KIDI 192335Z AUTO 16004KT 10SM CLR 27/16 A3010 RMK A01 =
2018-07-19 19:15 METAR KIDI 192315Z AUTO 18004KT 10SM CLR 27/15 A3010 RMK A01 =
2018-07-19 18:55 METAR KIDI 192255Z AUTO 17004KT 10SM CLR 28/14 A3010 RMK A01 =
2018-07-19 18:35 METAR KIDI 192235Z AUTO 16005KT 10SM CLR 28/14 A3010 RMK A01 =
2018-07-19 18:15 METAR KIDI 192215Z AUTO 18006KT 10SM CLR 28/14 A3010 RMK A01 =
2018-07-19 17:55 METAR KIDI 192155Z AUTO 17005KT 10SM CLR 28/14 A3010 RMK A01 =
2018-07-19 17:35 METAR KIDI 192135Z AUTO 00000KT 10SM CLR 28/14 A3011 RMK A01 =
2018-07-19 17:15 METAR KIDI 192115Z AUTO 18004KT 10SM CLR 28/14 A3011 RMK A01 =
2018-07-19 16:55 METAR KIDI 192055Z AUTO 00000KT 10SM CLR 28/14 A3012 RMK A01 =
2018-07-19 16:35 METAR KIDI 192035Z AUTO VRB06KT 10SM CLR 28/14 A3012 RMK A01 =
2018-07-19 16:15 METAR KIDI 192015Z AUTO 00000KT 10SM CLR 27/14 A3012 RMK A01 =
2018-07-19 15:55 METAR KIDI 191955Z AUTO VRB03KT 10SM CLR 27/15 A3012 RMK A01 =
2018-07-19 15:35 METAR KIDI 191935Z AUTO 24004G10KT 10SM CLR 27/14 A3013 RMK A01 =
2018-07-19 15:15 METAR KIDI 191915Z AUTO 22005KT 10SM CLR 27/14 A3013 RMK A01 =
2018-07-19 14:55 METAR KIDI 191855Z AUTO 00000KT 10SM CLR 26/13 A3014 RMK A01 =
2018-07-19 14:35 METAR KIDI 191835Z AUTO VRB03KT 6SM HZ CLR 26/14 A3014 RMK A01 =
2018-07-19 14:15 METAR KIDI 191815Z AUTO VRB03KT 10SM CLR 26/15 A3014 RMK A01 =
2018-07-19 13:55 METAR KIDI 191755Z AUTO 29005KT 10SM CLR 26/14 A3015 RMK A01 =
2018-07-19 13:35 METAR KIDI 191735Z AUTO VRB03G10KT 10SM CLR 25/13 A3015 RMK A01 =
2018-07-19 13:15 METAR KIDI 191715Z AUTO 00000KT 10SM CLR 25/13 A3016 RMK A01 =
2018-07-19 12:55 METAR KIDI 191655Z AUTO VRB04KT 10SM CLR 25/14 A3016 RMK A01 =
2018-07-19 12:35 METAR KIDI 191635Z AUTO VRB05KT 9SM CLR 25/13 A3017 RMK A01 =

Support USWX by starting your Amazon purchase here.